BAW9G EGLL-KORD

Flight info

Callsign BAW9G
Flight time N/A
Altitude 36000
Route ULTIB T420 TNT UL28 PENIL DCT DEJEM DCT OZRAT DCT WETFI DCT REVNU DCT PIKIL/M081F380 DCT 56N020W 56N030W 56N040W 5530N05000W DCT IRLOK/N0473F380 N736B OMTOL/N0483F400 N736B MT J545 YVO DCT ODAXY WYNDE3
Aircraft B772/H-SDE2E3FGHIJ5LORVWXY/LB1D1

Departure

Time 2026-05-03 20:44
Airport London Heathrow Airport (EGLL)

Arrival

Time N/A
Airport Chicago O'Hare International Airport (KORD)
Time Latitude Longitude Altitude Speed Heading
2026-05-03 20:15 51.47133 -0.48024 90 ft 0 kts 270°
2026-05-03 20:28 51.47133 -0.48019 91 ft 2 kts 270°
2026-05-03 20:28 51.47133 -0.47993 94 ft 2 kts 270°
2026-05-03 20:29 51.47133 -0.47967 92 ft 2 kts 270°
2026-05-03 20:29 51.47133 -0.47941 94 ft 2 kts 264°
2026-05-03 20:29 51.47137 -0.47916 93 ft 2 kts 245°
2026-05-03 20:29 51.47145 -0.47893 92 ft 2 kts 221°
2026-05-03 20:30 51.47157 -0.47877 90 ft 2 kts 215°
2026-05-03 20:30 51.47171 -0.47865 94 ft 2 kts 190°
2026-05-03 20:30 51.47187 -0.47864 93 ft 2 kts 174°
2026-05-03 20:30 51.47203 -0.47867 93 ft 2 kts 181°
2026-05-03 20:31 51.47200 -0.47868 93 ft 2 kts 187°
2026-05-03 20:31 51.47185 -0.47869 91 ft 0 kts 182°
2026-05-03 20:34 51.47166 -0.47870 90 ft 9 kts 180°
2026-05-03 20:34 51.47104 -0.47870 90 ft 9 kts 180°
2026-05-03 20:34 51.47042 -0.47870 90 ft 9 kts 180°
2026-05-03 20:35 51.46977 -0.47869 90 ft 11 kts 180°
2026-05-03 20:35 51.46901 -0.47869 90 ft 11 kts 180°
2026-05-03 20:35 51.46825 -0.47868 90 ft 11 kts 180°
2026-05-03 20:35 51.46753 -0.47848 95 ft 11 kts 139°
2026-05-03 20:36 51.46744 -0.47730 94 ft 11 kts 90°
2026-05-03 20:36 51.46745 -0.47605 94 ft 14 kts 89°
2026-05-03 20:36 51.46746 -0.47451 94 ft 14 kts 90°
2026-05-03 20:36 51.46746 -0.47299 94 ft 14 kts 90°
2026-05-03 20:37 51.46746 -0.47145 94 ft 14 kts 89°
2026-05-03 20:37 51.46747 -0.46972 94 ft 19 kts 89°
2026-05-03 20:37 51.46748 -0.46718 94 ft 25 kts 89°
2026-05-03 20:37 51.46748 -0.46437 94 ft 25 kts 90°
2026-05-03 20:38 51.46748 -0.46156 94 ft 25 kts 90°
2026-05-03 20:38 51.46748 -0.45876 94 ft 25 kts 90°
2026-05-03 20:38 51.46747 -0.45594 94 ft 25 kts 90°
2026-05-03 20:38 51.46750 -0.45312 90 ft 25 kts 89°
2026-05-03 20:39 51.46752 -0.45127 90 ft 25 kts 90°
2026-05-03 20:39 51.46752 -0.44847 91 ft 25 kts 90°
2026-05-03 20:39 51.46752 -0.44566 91 ft 25 kts 89°
2026-05-03 20:39 51.46754 -0.44299 93 ft 10 kts 89°
2026-05-03 20:40 51.46754 -0.44206 93 ft 4 kts 89°
2026-05-03 20:40 51.46754 -0.44173 93 ft 4 kts 89°
2026-05-03 20:40 51.46756 -0.44118 93 ft 9 kts 86°
2026-05-03 20:40 51.46771 -0.43959 93 ft 15 kts 85°
2026-05-03 20:41 51.46773 -0.43886 94 ft 2 kts 89°
2026-05-03 20:41 51.46772 -0.43865 94 ft 2 kts 97°
2026-05-03 20:41 51.46736 -0.43821 92 ft 9 kts 183°
2026-05-03 20:41 51.46679 -0.43798 95 ft 9 kts 127°
2026-05-03 20:42 51.46670 -0.43700 90 ft 9 kts 96°
2026-05-03 20:42 51.46631 -0.43620 95 ft 10 kts 154°
2026-05-03 20:42 51.46563 -0.43602 91 ft 10 kts 177°
2026-05-03 20:42 51.46500 -0.43643 94 ft 4 kts 228°
2026-05-03 20:43 51.46490 -0.43685 93 ft 4 kts 253°
2026-05-03 20:43 51.46491 -0.43770 92 ft 19 kts 270°
2026-05-03 20:43 51.46489 -0.44426 92 ft 106 kts 271°
2026-05-03 20:43 51.46482 -0.46064 110 ft 186 kts 270°
2026-05-03 20:44 51.46477 -0.48244 943 ft 201 kts 269°
2026-05-03 20:44 51.46494 -0.50491 1757 ft 207 kts 271°
2026-05-03 20:44 51.46532 -0.52823 2173 ft 213 kts 273°
2026-05-03 20:44 51.46885 -0.55180 2308 ft 227 kts 298°
2026-05-03 20:45 51.47862 -0.57220 2452 ft 240 kts 313°
2026-05-03 20:45 51.48951 -0.59344 2682 ft 253 kts 304°
2026-05-03 20:45 51.49894 -0.61792 3320 ft 262 kts 300°
2026-05-03 20:45 51.50781 -0.64371 4138 ft 265 kts 297°
2026-05-03 20:46 51.51819 -0.66800 4830 ft 269 kts 318°
2026-05-03 20:46 51.53501 -0.68150 5530 ft 273 kts 348°
2026-05-03 20:46 51.55380 -0.68381 5997 ft 277 kts 358°
2026-05-03 20:46 51.57323 -0.68446 5994 ft 280 kts 358°
2026-05-03 20:47 51.59264 -0.68525 5992 ft 277 kts 357°
2026-05-03 20:47 51.61179 -0.68718 5992 ft 276 kts 355°
2026-05-03 20:47 51.63090 -0.68927 5990 ft 274 kts 359°
2026-05-03 20:47 51.64923 -0.68265 6283 ft 274 kts 31°
2026-05-03 20:48 51.66319 -0.66186 6939 ft 279 kts 58°
2026-05-03 20:48 51.67015 -0.63284 7624 ft 280 kts 84°
2026-05-03 20:48 51.67016 -0.60135 8219 ft 283 kts 95°
2026-05-03 20:48 51.66903 -0.56943 8886 ft 289 kts 95°
2026-05-03 20:49 51.66792 -0.53696 9668 ft 291 kts 95°
2026-05-03 20:49 51.66686 -0.50402 10290 ft 299 kts 95°
2026-05-03 20:49 51.66575 -0.46925 10500 ft 322 kts 95°
2026-05-03 20:49 51.66518 -0.43225 10714 ft 338 kts 86°
2026-05-03 20:50 51.67225 -0.39574 11086 ft 355 kts 59°
2026-05-03 20:50 51.68914 -0.36648 11748 ft 363 kts 33°
2026-05-03 20:50 51.71247 -0.35108 12492 ft 366 kts
2026-05-03 20:50 51.73773 -0.35303 13223 ft 366 kts 341°
2026-05-03 20:51 51.76034 -0.37102 13891 ft 361 kts 324°
2026-05-03 20:51 51.78167 -0.39397 14359 ft 370 kts 324°
2026-05-03 20:51 51.80358 -0.41626 15037 ft 374 kts 326°
2026-05-03 20:51 51.82587 -0.43831 15846 ft 375 kts 326°
2026-05-03 20:52 51.84826 -0.46022 16589 ft 378 kts 326°
2026-05-03 20:52 51.87092 -0.48237 17197 ft 383 kts 326°
2026-05-03 20:52 51.89390 -0.50483 17847 ft 387 kts 326°
2026-05-03 20:52 51.91705 -0.52751 18457 ft 391 kts 326°
2026-05-03 20:53 51.94038 -0.55039 19012 ft 394 kts 326°
2026-05-03 20:53 51.96365 -0.57315 19560 ft 397 kts 326°
2026-05-03 20:53 51.98745 -0.59637 20103 ft 400 kts 326°
2026-05-03 20:53 52.01143 -0.61976 20628 ft 403 kts 326°
2026-05-03 20:54 52.03561 -0.64338 21153 ft 406 kts 326°
2026-05-03 20:54 52.08441 -0.69117 22202 ft 413 kts 326°
2026-05-03 20:54 52.10907 -0.71537 22724 ft 416 kts 326°
2026-05-03 20:55 52.13394 -0.73983 23228 ft 419 kts 325°
2026-05-03 20:55 52.15897 -0.76457 23680 ft 422 kts 325°
2026-05-03 20:55 52.18418 -0.78958 24096 ft 426 kts 325°
2026-05-03 20:55 52.20955 -0.81476 24503 ft 429 kts 325°
2026-05-03 20:56 52.23523 -0.84028 24914 ft 432 kts 325°
2026-05-03 20:56 52.26100 -0.86589 25317 ft 436 kts 325°
2026-05-03 20:56 52.28664 -0.89133 25709 ft 439 kts 325°
2026-05-03 20:56 52.31332 -0.91778 26134 ft 442 kts 325°
2026-05-03 20:57 52.33961 -0.94388 26538 ft 445 kts 325°
2026-05-03 20:57 52.36611 -0.97023 26934 ft 448 kts 325°
2026-05-03 20:57 52.39251 -0.99654 27354 ft 451 kts 326°
2026-05-03 20:57 52.41945 -1.02341 27773 ft 454 kts 326°
2026-05-03 20:58 52.44644 -1.05037 28189 ft 456 kts 326°
2026-05-03 20:58 52.47365 -1.07760 28591 ft 459 kts 325°
2026-05-03 20:58 52.50097 -1.10503 28987 ft 462 kts 325°
2026-05-03 20:58 52.52845 -1.13288 29378 ft 464 kts 325°
2026-05-03 20:59 52.55597 -1.16086 29782 ft 467 kts 325°
2026-05-03 20:59 52.58376 -1.18908 30113 ft 470 kts 325°
2026-05-03 20:59 52.61169 -1.21736 30426 ft 473 kts 325°
2026-05-03 20:59 52.63977 -1.24579 30751 ft 475 kts 325°
2026-05-03 21:00 52.66798 -1.27440 31118 ft 475 kts 325°
2026-05-03 21:00 52.68663 -1.29333 31372 ft 475 kts 325°
2026-05-03 21:00 52.72437 -1.33174 31915 ft 476 kts 325°
2026-05-03 21:00 52.75247 -1.36035 32398 ft 474 kts 325°
2026-05-03 21:01 52.78009 -1.38848 32923 ft 471 kts 325°
2026-05-03 21:01 52.80786 -1.41680 33451 ft 468 kts 325°
2026-05-03 21:01 52.83552 -1.44505 33876 ft 467 kts 325°
2026-05-03 21:01 52.86336 -1.47358 33990 ft 474 kts 325°
2026-05-03 21:02 52.92011 -1.53186 34184 ft 484 kts 326°
2026-05-03 21:02 52.94877 -1.56133 34369 ft 486 kts 326°
2026-05-03 21:02 52.97755 -1.59098 34641 ft 485 kts 326°
2026-05-03 21:03 53.00618 -1.62051 34980 ft 483 kts 326°
2026-05-03 21:03 53.03464 -1.64991 35355 ft 481 kts 326°
2026-05-03 21:03 53.06270 -1.67896 35639 ft 480 kts 326°
2026-05-03 21:03 53.09113 -1.70851 35859 ft 482 kts 326°
2026-05-03 21:04 53.14843 -1.76826 35938 ft 487 kts 326°
2026-05-03 21:04 53.20531 -1.82897 35933 ft 479 kts 320°
2026-05-03 21:05 53.25040 -1.90775 35975 ft 471 kts 302°
2026-05-03 21:05 53.28133 -2.00365 35948 ft 468 kts 293°
2026-05-03 21:06 53.30961 -2.10186 35964 ft 469 kts 294°
2026-05-03 21:06 53.33860 -2.19981 35967 ft 470 kts 294°
2026-05-03 21:07 53.36517 -2.29959 35960 ft 469 kts 286°
2026-05-03 21:07 53.38474 -2.40376 35970 ft 469 kts 285°
2026-05-03 21:08 53.40414 -2.50828 35960 ft 470 kts 285°
2026-05-03 21:08 53.42369 -2.61212 35972 ft 470 kts 286°
2026-05-03 21:09 53.44344 -2.71679 35967 ft 470 kts 286°
2026-05-03 21:09 53.46309 -2.82157 35966 ft 470 kts 286°
2026-05-03 21:10 53.48261 -2.92632 35972 ft 470 kts 286°
2026-05-03 21:10 53.50174 -3.03064 35971 ft 469 kts 285°
2026-05-03 21:11 53.52082 -3.13557 35972 ft 469 kts 286°
2026-05-03 21:11 53.53983 -3.24054 35966 ft 469 kts 285°
2026-05-03 21:12 53.55880 -3.34581 35971 ft 469 kts 285°
2026-05-03 21:12 53.57765 -3.45094 35975 ft 469 kts 285°
2026-05-03 21:13 53.59659 -3.55607 35968 ft 470 kts 286°
2026-05-03 21:13 53.61546 -3.66086 35975 ft 470 kts 285°
2026-05-03 21:14 53.63390 -3.76671 35968 ft 470 kts 285°
2026-05-03 21:14 53.65191 -3.87272 35968 ft 470 kts 285°
2026-05-03 21:15 53.66976 -3.97810 35976 ft 470 kts 285°
2026-05-03 21:15 53.68771 -4.08432 35978 ft 470 kts 285°
2026-05-03 21:16 53.70554 -4.19042 35974 ft 469 kts 285°
2026-05-03 21:16 53.72331 -4.29675 35970 ft 469 kts 285°
2026-05-03 21:17 53.73794 -4.38481 35977 ft 469 kts 285°
2026-05-03 21:17 53.75842 -4.50887 35977 ft 469 kts 285°
2026-05-03 21:18 53.77578 -4.61467 35979 ft 469 kts 285°
2026-05-03 21:18 53.79309 -4.72116 35977 ft 470 kts 286°
2026-05-03 21:19 53.80895 -4.82858 35981 ft 471 kts 280°
2026-05-03 21:19 53.81442 -4.93924 35990 ft 473 kts 273°
2026-05-03 21:20 53.81723 -5.05066 35987 ft 474 kts 273°
2026-05-03 21:20 53.82037 -5.16202 35988 ft 475 kts 273°
2026-05-03 21:21 53.82367 -5.27388 35986 ft 476 kts 274°
2026-05-03 21:21 53.82689 -5.38589 35992 ft 477 kts 274°
2026-05-03 21:22 53.83131 -5.49784 36001 ft 476 kts 279°
2026-05-03 21:22 53.84585 -5.60617 35993 ft 476 kts 287°
2026-05-03 21:23 53.86351 -5.71449 35988 ft 476 kts 287°
2026-05-03 21:23 53.88090 -5.82306 35995 ft 477 kts 287°
2026-05-03 21:24 53.89511 -5.91356 35999 ft 477 kts 287°
2026-05-03 21:24 53.91476 -6.04036 36001 ft 478 kts 287°
2026-05-03 21:25 53.92881 -6.13177 36003 ft 478 kts 286°
2026-05-03 21:25 53.94547 -6.24079 36003 ft 477 kts 286°
2026-05-03 21:26 53.96196 -6.34935 35998 ft 477 kts 286°
2026-05-03 21:26 53.97845 -6.45856 36002 ft 477 kts 286°
2026-05-03 21:27 53.99483 -6.56783 36005 ft 477 kts 286°
2026-05-03 21:27 54.01115 -6.67746 36006 ft 477 kts 286°
2026-05-03 21:28 54.02735 -6.78701 36004 ft 478 kts 286°
2026-05-03 21:28 54.04338 -6.89621 35998 ft 478 kts 286°
2026-05-03 21:29 54.05942 -7.00625 36008 ft 478 kts 286°
2026-05-03 21:29 54.07536 -7.11640 36005 ft 478 kts 286°